Torna al catalogo

PUYIN-1

AttivoScienzaPO
NORAD 53448·PAYLOAD·🇨🇳 China
Questo nome del satellite non è ancora stato confermato da fonti ufficiali.

Lanciato Aug 10, 2022 da Taiyuan Satellite Launch Center

Loading…

Prossimi Passaggi (prossime 24 ore)

TLE

AggiornatoSource: Space-Track

Epoca: Sep 14, 2026, 14:22 UTC

1 53448U 22098E   26257.59880340  .00191040  15399-4  64964-3 0  9992
2 53448  97.5675  36.6596 0002129 272.8410  87.2619 15.89848969228796

Traccia PUYIN-1 in tempo reale con AllMySat

Download on the App Store